Location: Contre
(49.7477°N, 2.0963°E)
Time: 22:42:54
(UTC+00:00)

VELOX 1 - Visible Passes

Search period start: 27 May 2024 00:00
Search period end: 06 June 2024 00:00
Orbit: 605 x 617 km, 98.3° (Epoch: 27 May)

Date Brightness Start Highest point End Pass type
(mag) Time Alt. Az. Time Alt. Az. Time Alt. Az.
27 May ? 20:41:25 10° N 20:45:35 51° WNW 20:49:43 10° SW visible
28 May ? 20:56:00 10° N 20:59:58 38° WNW 21:03:54 10° SW visible
29 May ? 21:10:38 10° N 21:14:19 28° WNW 21:17:58 10° WSW visible
30 May ? 21:25:20 10° N 21:28:38 22° WNW 21:31:53 10° WSW visible
31 May ? 21:40:09 10° NNW 21:42:54 17° WNW 21:45:38 10° W visible
01 Jun ? 21:55:10 10° NNW 21:57:09 13° NW 21:59:06 10° W visible
02 Jun ? 20:32:04 10° N 20:36:19 65° WNW 20:40:31 10° SSW visible
03 Jun ? 20:46:33 10° N 20:50:40 47° WNW 20:54:45 10° SW visible
04 Jun ? 21:01:06 10° N 21:05:00 35° WNW 21:08:52 10° SW visible
05 Jun ? 21:15:42 10° N 21:19:17 27° WNW 21:22:50 10° WSW visible
